Cahokia, IL

3:49 PM CST on December 07, 2019 (GMT -0600)
Saint Louis Downtown

Weather History for KCPS - October, 2019

Change the Weather History Date:

Friday, October 4, 2019

  Actual Average Record
Temperature  
Mean Temperature 62 °F -  
Max Temperature 72 °F 78 °F 91 °F (1951)
Min Temperature 52 °F 61 °F 33 °F (2010)
Degree Days  
Heating Degree Days 4    
Growing Degree Days 12 (Base 50)    
Moisture  
Dew Point 47 °F    
Average Humidity 63    
Maximum Humidity 77    
Minimum Humidity 41    
Precipitation  
Precipitation 0.00 in - - ()
Sea Level Pressure  
Sea Level Pressure 30.27 in    
Wind  
Wind Speed 8 mph (NE)    
Max Wind Speed 12 mph    
Max Gust Speed 20 mph    
Visibility 10 miles    
Events      
Averages and records for this station are not official NWS values.
T = Trace of Precipitation, MM = Missing Value Source: NWS Daily Summary

Daily Weather History Graph

Daily Weather History Graph

Search for Another Location

Airport or City:

Astronomy

Oct. 04, 2019 Rise Set
Actual Time 6:59 AM CDT 6:39 PM CDT
Civil Twilight 6:32 AM CDT 7:05 PM CDT
Nautical Twilight 6:01 AM CDT 7:36 PM CDT
Astronomical Twilight 5:30 AM CDT 8:07 PM CDT
Moon 1:27 PM CDT (10/4) 11:12 PM CDT (10/4)
Length of Visible Light 12h 32m
Length of Day
11h 40m
Waxing Crescent, 40% of the Moon is Illuminated
Oct 4
Waxing Crescent
Oct 5
First Quarter
Oct 13
Full
Oct 21
Last Quarter
Oct 27
New

Hourly Weather History & Observations

Time (CDT) Temp. Dew Point Humidity Pressure Visibility Wind Dir Wind Speed Gust Speed Precip Events Conditions
12:53 AM 55.9 °F 48.0 °F 75% 30.27 in 10.0 mi North 8.1 mph - N/A   Clear
1:53 AM 55.9 °F 48.0 °F 75% 30.28 in 10.0 mi North 9.2 mph - N/A   Clear
2:53 AM 55.0 °F 48.0 °F 77% 30.29 in 10.0 mi North 9.2 mph - N/A   Partly Cloudy
3:53 AM 55.0 °F 46.9 °F 74% 30.29 in 10.0 mi North 9.2 mph - N/A   Mostly Cloudy
4:53 AM 55.0 °F 46.0 °F 72% 30.30 in 10.0 mi North 11.5 mph - N/A   Overcast
5:53 AM 54.0 °F 46.0 °F 75% 30.32 in 10.0 mi NNE 9.2 mph - N/A   Overcast
6:53 AM 52.0 °F 45.0 °F 77% 30.33 in 10.0 mi NNE 10.4 mph - N/A   Overcast
7:53 AM 52.0 °F 45.0 °F 77% 30.35 in 10.0 mi NNE 9.2 mph - N/A   Clear
8:53 AM 55.0 °F 46.0 °F 72% 30.35 in 10.0 mi NNE 9.2 mph - N/A   Clear
9:53 AM 57.9 °F 45.0 °F 62% 30.35 in 10.0 mi ENE 8.1 mph - N/A   Clear
10:53 AM 62.1 °F 46.9 °F 58% 30.34 in 10.0 mi Variable 6.9 mph - N/A   Clear
11:53 AM 64.0 °F 46.9 °F 54% 30.32 in 10.0 mi ENE 5.8 mph - N/A   Clear
12:53 PM 66.9 °F 46.9 °F 49% 30.30 in 10.0 mi North 10.4 mph - N/A   Clear
1:53 PM 69.1 °F 46.0 °F 44% 30.27 in 10.0 mi NE 6.9 mph 19.6 mph N/A   Clear
2:53 PM 71.1 °F 46.9 °F 42% 30.25 in 10.0 mi NNE 8.1 mph - N/A   Clear
3:53 PM 71.1 °F 46.9 °F 42% 30.23 in 10.0 mi ENE 9.2 mph - N/A   Clear
4:53 PM 71.1 °F 46.0 °F 41% 30.22 in 10.0 mi NNE 10.4 mph - N/A   Clear
5:53 PM 69.1 °F 46.0 °F 44% 30.22 in 10.0 mi ENE 6.9 mph - N/A   Clear
6:53 PM 64.9 °F 46.9 °F 52% 30.22 in 10.0 mi NE 4.6 mph - N/A   Clear
7:53 PM 60.1 °F 48.9 °F 67% 30.22 in 10.0 mi ENE 4.6 mph - N/A   Clear
8:53 PM 59.0 °F 48.9 °F 69% 30.22 in 10.0 mi ENE 3.5 mph - N/A   Clear
9:53 PM 57.0 °F 48.0 °F 72% 30.22 in 10.0 mi ENE 3.5 mph - N/A   Clear
10:53 PM 57.9 °F 48.0 °F 70% 30.21 in 10.0 mi East 5.8 mph - N/A   Clear
11:53 PM 57.9 °F 46.9 °F 67% 30.19 in 10.0 mi East 5.8 mph - N/A   Clear